FW9555 Weather Reports


Display with metric or nautical units.
time (UTC)temp
F
wind
direction
speed
MPH
gust
MPH
rain 1hr
in
rain 24hr
in
rain mn
in
humidity
%
barometer
mb
20260507214857 61 299 2.0 4.0 0.64 1.23 1.23 99 1011.8
20260507214354 61 292 3.0 5.0 0.97 1.21 1.21 99 1011.9
20260507213850 61 307 3.0 7.0 1.16 1.11 1.11 99 1011.5
20260507213347 62 338 5.0 7.0 0.83 1.03 1.03 99 1011.1
20260507212844 62 0 0.0 5.0 0.07 0.90 0.90 99 1010.4
20260507212339 62 330 0.0 9.0 0.47 0.89 0.89 99 1010.5
20260507211836 62 300 2.0 5.0 1.25 0.89 0.89 98 1010.4
20260507211333 63 341 4.0 5.0 1.21 0.76 0.76 97 1011.3
20260507210830 64 288 3.0 6.0 0.90 0.66 0.66 95 1010.0
20260507210327 67 11 2.0 3.0 0.09 0.53 0.53 88 1010.0
20260507205823 69 321 7.0 8.0 0.00 0.51 0.51 83 1010.3
20260507205320 74 337 2.0 2.0 0.00 0.51 0.51 77 1009.9
20260507204816 75 270 0.0 0.0 0.00 0.51 0.51 78 1010.1
20260507204314 76 270 0.0 0.0 0.00 0.51 0.51 77 1010.1
20260507203812 77 270 0.0 2.0 0.00 0.51 0.51 72 1010.2
20260507203309 78 285 0.0 0.0 0.00 0.51 0.51 77 1010.3
20260507202805 78 285 0.0 2.0 0.00 0.51 0.51 76 1010.2
20260507202306 75 57 0.0 0.0 0.00 0.51 0.51 79 1010.2
20260507201756 75 57 0.0 2.0 0.00 0.51 0.51 76 1010.6
20260507201253 76 286 0.0 3.0 0.00 0.51 0.51 75 1010.4
20260507200750 76 303 0.0 4.0 0.00 0.51 0.51 76 1010.3
20260507200246 76 0 0.0 2.0 0.00 0.51 0.51 78 1010.3
20260507195742 75 40 0.0 2.0 0.00 0.51 0.51 73 1010.3
20260507195239 77 337 1.0 3.0 0.00 0.51 0.51 70 1010.6
20260507194737 79 286 2.0 2.0 0.00 0.51 0.51 73 1010.5
20260507194232 77 0 0.0 3.0 0.00 0.51 0.51 72 1010.6
20260507193729 77 281 0.0 4.0 0.00 0.51 0.51 69 1010.6
20260507193226 78 294 6.0 7.0 0.00 0.51 0.51 72 1011.2
20260507192722 77 294 0.0 0.0 0.00 0.51 0.51 73 1011.0
20260507192219 76 349 0.0 2.0 0.00 0.51 0.51 79 1011.1
20260507191715 78 344 3.0 4.0 0.00 0.51 0.51 74 1011.1
20260507191212 78 303 0.0 3.0 0.00 0.51 0.51 76 1011.3
20260507190709 77 332 3.0 4.0 0.00 0.51 0.51 73 1010.8
20260507190208 78 81 0.0 2.0 0.00 0.51 0.51 80 1011.1
20260507185706 77 337 0.0 1.0 0.00 0.51 0.51 81 1011.1
20260507185202 76 337 2.0 2.0 0.00 0.51 0.51 75 1011.4
20260507184700 76 275 0.0 4.0 0.00 0.51 0.51 78 1011.4
20260507184158 75 279 0.0 8.0 0.00 0.51 0.51 78 1011.2
20260507183654 75 293 5.0 5.0 0.00 0.51 0.51 78 1011.5
20260507183151 74 8 4.0 7.0 0.00 0.51 0.51 76 1011.4
20260507182648 76 14 1.0 2.0 0.00 0.51 0.51 83 1011.2
20260507182143 77 289 1.0 1.0 0.00 0.51 0.51 88 1011.2
20260507181640 73 334 2.0 6.0 0.00 0.51 0.51 79 1011.2
20260507181136 75 66 0.0 2.0 0.00 0.51 0.51 88 1011.3
20260507180633 73 264 5.0 5.0 0.00 0.51 0.51 81 1011.3
20260507180130 73 257 0.0 4.0 0.00 0.51 0.51 88 1011.5
20260507175626 72 33 0.0 0.0 0.00 0.51 0.51 90 1011.5
20260507175123 71 59 0.0 4.0 0.00 0.51 0.51 87 1011.9
20260507174620 71 270 0.0 5.0 0.00 0.51 0.51 89 1012.0
20260507174118 71 103 0.0 0.0 0.00 0.51 0.51 94 1012.1
20260507173615 71 311 0.0 3.0 0.00 0.51 0.51 91 1012.1
20260507173112 70 300 2.0 4.0 0.00 0.51 0.51 93 1012.3
20260507172608 68 11 0.0 3.0 0.00 0.51 0.51 95 1012.1
20260507172106 69 319 2.0 3.0 0.00 0.51 0.51 99 1011.9
20260507171600 67 16 2.0 3.0 0.00 0.51 0.51 99 1012.0
20260507171058 67 292 0.0 2.0 0.00 0.51 0.51 99 1012.1
20260507170554 67 81 0.0 0.0 0.00 0.51 0.51 99 1012.2
20260507170051 66 75 1.0 1.0 0.00 0.51 0.51 99 1012.5
20260507165547 66 0 2.0 2.0 0.00 0.51 0.51 99 1012.5
20260507165044 66 78 0.0 6.0 0.00 0.51 0.51 99 1012.4
20260507164540 66 41 0.0 5.0 0.00 0.51 0.51 99 1012.5
20260507164037 69 81 0.0 1.0 0.00 0.51 0.51 99 1012.2
20260507163534 68 286 0.0 2.0 0.00 0.51 0.51 99 1012.3
20260507163032 66 36 0.0 2.0 0.00 0.51 0.51 99 1012.5
20260507162527 67 82 0.0 1.0 0.00 0.51 0.51 99 1012.5
20260507162024 66 90 0.0 3.0 0.00 0.51 0.51 99 1012.5
20260507161520 67 334 1.0 2.0 0.00 0.51 0.51 99 1012.3
20260507161017 66 99 0.0 3.0 0.00 0.51 0.51 99 1013.0
20260507160513 66 232 6.0 6.0 0.00 0.51 0.51 99 1013.0
20260507160010 67 352 2.0 3.0 0.00 0.51 0.51 99 1012.7
20260507155505 67 194 0.0 0.0 0.00 0.51 0.51 99 1012.2
20260507155003 66 261 0.0 2.0 0.00 0.51 0.51 99 1012.1
20260507154459 66 324 3.0 4.0 0.00 0.51 0.51 99 1012.5
20260507153956 66 337 0.0 3.0 0.00 0.51 0.51 99 1012.1
20260507153453 66 121 3.0 3.0 0.00 0.51 0.51 99 1012.0
20260507152949 66 185 0.0 2.0 0.00 0.51 0.51 99 1011.8
20260507152445 68 270 2.0 2.0 0.00 0.51 0.51 99 1011.3
20260507151941 66 90 0.0 0.0 0.00 0.51 0.51 99 1011.6
20260507151438 66 4 0.0 2.0 0.00 0.51 0.51 99 1011.9
20260507150935 66 157 0.0 3.0 0.00 0.51 0.51 99 1012.2
20260507150432 66 77 0.0 2.0 0.02 0.51 0.51 99 1012.1
20260507145928 66 117 0.0 2.0 0.05 0.51 0.51 99 1012.2
20260507145424 65 99 0.0 3.0 0.02 0.51 0.51 99 1012.1
20260507144921 65 114 0.0 2.0 0.02 0.50 0.50 99 1012.7
20260507144418 64 135 0.0 2.0 0.07 0.50 0.50 99 1013.0
20260507143915 64 120 0.0 2.0 0.12 0.50 0.50 99 1013.1
20260507143412 64 14 0.0 3.0 0.12 0.49 0.49 99 1013.5
20260507142909 64 98 1.0 2.0 0.07 0.48 0.48 99 1013.5
20260507142404 65 84 0.0 1.0 0.07 0.47 0.47 99 1013.7
20260507141902 65 0 0.0 2.0 0.07 0.47 0.47 99 1013.7
20260507141358 65 53 0.0 2.0 0.07 0.46 0.46 99 1013.5
20260507140854 65 325 0.0 2.0 0.07 0.45 0.45 99 1013.1
20260507140351 65 66 1.0 3.0 0.05 0.45 0.45 99 1013.0
20260507135849 65 139 2.0 2.0 0.02 0.44 0.44 99 1012.8
20260507135346 65 115 0.0 2.0 0.05 0.44 0.44 99 1012.6
20260507134843 65 26 0.0 2.0 0.07 0.44 0.44 99 1012.5
20260507134339 65 135 0.0 2.0 0.02 0.43 0.43 99 1012.6
20260507133835 65 99 0.0 2.0 0.00 0.42 0.42 99 1012.6
20260507133331 65 90 1.0 1.0 0.00 0.42 0.42 99 1012.7
20260507132830 65 173 0.0 2.0 0.02 0.42 0.42 99 1012.5
20260507132326 64 106 1.0 2.0 0.02 0.42 0.42 99 1012.4
20260507131823 64 90 1.0 2.0 0.00 0.42 0.42 99 1012.6
20260507131320 64 81 0.0 1.0 0.02 0.42 0.42 99 1012.5
20260507130816 64 129 0.0 2.0 0.02 0.42 0.42 99 1012.9
20260507130314 64 11 0.0 2.0 0.00 0.42 0.42 99 1012.9
20260507125813 64 98 0.0 1.0 0.02 0.42 0.42 99 1012.9
20260507125310 64 114 0.0 1.0 0.02 0.42 0.42 99 1012.9
20260507124807 64 106 1.0 2.0 0.00 0.41 0.41 99 1013.1
20260507124303 64 106 0.0 2.0 0.02 0.41 0.41 99 1013.1
20260507123802 64 306 1.0 2.0 0.07 0.41 0.41 99 1013.2
20260507123259 64 159 0.0 2.0 0.05 0.41 0.41 99 1013.4
20260507122754 64 172 0.0 0.0 0.00 0.40 0.40 99 1013.7
20260507122250 63 180 0.0 4.0 0.00 0.40 0.40 99 1013.7
20260507121746 64 123 0.0 3.0 0.00 0.40 0.40 99 1013.7
20260507121242 63 158 2.0 4.0 0.00 0.40 0.40 99 1013.8
20260507120738 64 304 2.0 5.0 0.05 0.40 0.40 99 1014.4
20260507120235 64 86 2.0 5.0 0.07 0.40 0.40 99 1014.4
20260507115731 64 50 4.0 4.0 0.02 0.39 0.39 99 1014.5
20260507115227 64 240 3.0 3.0 0.02 0.39 0.39 99 1013.8
20260507114723 64 332 0.0 3.0 0.02 0.39 0.39 99 1013.3
20260507114221 64 60 0.0 2.0 0.02 0.39 0.39 99 1013.4
20260507113718 63 20 0.0 2.0 0.02 0.38 0.38 99 1013.0
20260507113215 63 74 0.0 2.0 0.05 0.38 0.38 99 1013.0
20260507112712 63 337 1.0 2.0 0.00 0.37 0.37 99 1013.1
20260507112209 63 99 0.0 2.0 0.00 0.37 0.37 99 1013.0
20260507111707 63 26 0.0 1.0 0.05 0.37 0.37 99 1013.1
20260507111203 63 306 0.0 1.0 0.14 0.37 0.37 99 1013.1
20260507110659 63 75 1.0 1.0 0.12 0.36 0.36 99 1013.3
20260507110156 63 99 0.0 1.0 0.02 0.35 0.35 99 1013.8
20260507105653 63 112 2.0 3.0 0.00 0.34 0.34 99 1013.4
20260507105149 63 257 0.0 2.0 0.05 0.34 0.34 99 1013.4
20260507104647 63 173 0.0 1.0 0.09 0.34 0.34 99 1013.0
20260507104143 63 151 1.0 2.0 0.05 0.34 0.34 99 1012.9
20260507103639 63 90 0.0 2.0 0.00 0.33 0.33 99 1012.9
20260507103136 63 145 0.0 1.0 0.00 0.33 0.33 99 1013.5
20260507102632 63 188 0.0 2.0 0.00 0.33 0.33 99 1013.6
20260507102128 63 165 0.0 1.0 0.00 0.33 0.33 99 1013.2
20260507101624 63 157 0.0 0.0 0.00 0.33 0.33 99 1013.2
20260507101120 63 120 1.0 2.0 0.00 0.33 0.33 99 1013.0
20260507100618 63 157 1.0 2.0 0.02 0.33 0.33 99 1012.7
20260507100116 63 103 0.0 1.0 0.02 0.33 0.33 99 1013.0
20260507095614 63 257 1.0 2.0 0.00 0.32 0.32 99 1012.9
20260507095110 63 90 0.0 3.0 0.00 0.32 0.32 99 1013.1
20260507094606 63 90 0.0 3.0 0.00 0.32 0.32 99 1013.2
20260507094103 63 221 0.0 2.0 0.00 0.32 0.32 99 1013.2
20260507093601 63 90 0.0 2.0 0.00 0.32 0.32 99 1012.5
20260507093059 63 35 1.0 3.0 0.00 0.32 0.32 99 1013.1
20260507092555 63 99 0.0 2.0 0.00 0.32 0.32 99 1013.1
20260507092052 63 55 2.0 2.0 0.00 0.32 0.32 99 1012.8
20260507091549 63 33 0.0 3.0 0.00 0.32 0.32 99 1013.2
20260507091045 63 66 0.0 2.0 0.02 0.32 0.32 99 1013.3
20260507090541 63 29 0.0 3.0 0.02 0.32 0.32 99 1013.4
20260507090038 63 315 0.0 2.0 0.02 0.32 0.32 99 1013.5
20260507085535 63 220 0.0 3.0 0.05 0.32 0.32 99 1013.0
20260507085032 63 83 0.0 2.0 0.02 0.32 0.32 99 1012.8
20260507084528 63 98 1.0 2.0 0.00 0.31 0.31 99 1013.0
20260507084025 63 111 0.0 2.0 0.00 0.31 0.31 99 1013.2
20260507083521 63 114 1.0 1.0 0.00 0.31 0.31 99 1013.0
20260507083019 63 90 0.0 2.0 0.02 0.31 0.31 99 1013.1
20260507082515 63 120 0.0 2.0 0.00 0.31 0.31 99 1013.0
20260507082011 63 90 0.0 0.0 0.00 0.31 0.31 99 1013.0
20260507081508 63 66 0.0 1.0 0.00 0.31 0.31 99 1013.1
20260507081004 63 90 0.0 2.0 0.00 0.31 0.31 99 1012.9
20260507080500 63 90 0.0 1.0 0.00 0.31 0.31 99 1013.2
20260507075955 63 81 0.0 1.0 0.02 0.31 0.31 99 1013.2
20260507075452 63 82 1.0 2.0 0.05 0.31 0.31 99 1013.3
20260507074949 63 120 0.0 2.0 0.05 0.30 0.30 99 1013.2
20260507074446 63 75 0.0 1.0 0.05 0.30 0.30 99 1013.9
20260507073944 63 144 2.0 2.0 0.07 0.29 0.29 99 1013.0
20260507073440 63 69 0.0 2.0 0.05 0.29 0.29 99 1013.2
20260507072936 63 15 0.0 1.0 0.00 0.28 0.28 99 1013.5
20260507072434 63 81 0.0 3.0 0.00 0.28 0.28 99 1013.4
20260507071932 63 90 0.0 1.0 0.00 0.28 0.28 99 1013.4
20260507071428 63 23 0.0 1.0 0.00 0.28 0.28 99 1013.9
20260507070925 63 342 0.0 2.0 0.00 0.28 0.28 99 1013.5
20260507070422 63 120 0.0 2.0 0.00 0.28 0.28 99 1013.8
20260507065919 63 106 1.0 2.0 0.02 0.28 0.28 99 1014.5
20260507065416 63 83 0.0 2.0 0.07 0.28 0.28 99 1014.3
20260507064913 63 90 0.0 0.0 0.05 0.28 0.28 99 1014.8
20260507064411 63 98 0.0 1.0 0.07 0.27 0.27 99 1014.9
20260507063909 63 75 0.0 0.0 0.05 0.26 0.26 99 1015.0
20260507063406 63 75 0.0 2.0 0.07 0.26 0.26 99 1014.4
20260507062902 63 66 0.0 2.0 0.02 0.25 0.25 99 1014.9
20260507062359 63 90 0.0 1.0 0.05 0.25 0.25 99 1015.3
20260507061857 63 120 0.0 0.0 0.05 0.24 0.24 99 1015.2
20260507061355 63 345 1.0 2.0 0.07 0.24 0.24 99 1015.2
20260507060853 63 246 0.0 0.0 0.05 0.24 0.24 99 1015.1
20260507060349 63 246 0.0 1.0 0.00 0.23 0.23 99 1015.1
20260507055846 63 90 0.0 1.0 0.00 0.23 0.23 99 1014.7
20260507055341 63 82 0.0 1.0 0.00 0.23 0.23 99 1015.0
20260507054838 63 90 2.0 2.0 0.00 0.23 0.23 99 1015.2
20260507054334 63 99 0.0 1.0 0.00 0.23 0.23 99 1016.3
20260507053831 63 29 1.0 4.0 0.02 0.23 0.23 99 1016.7
20260507053329 63 74 0.0 1.0 0.05 0.23 0.23 99 1015.2
20260507052828 63 90 0.0 0.0 0.12 0.22 0.22 99 1015.8
20260507052324 63 320 0.0 4.0 0.59 0.22 0.22 99 1015.9
20260507051822 63 253 0.0 3.0 0.87 0.20 0.20 99 1016.0
20260507051319 63 75 0.0 2.0 0.40 0.08 0.08 99 1016.0
20260507050816 63 280 4.0 6.0 0.26 0.05 0.05 99 1016.0
20260507050312 63 42 3.0 3.0 0.00 0.00 0.00 99 1015.5
20260507045809 63 337 0.0 2.0 0.00 0.00 0.00 99 1015.2
20260507045307 63 74 0.0 0.0 0.00 0.00 0.00 99 1014.9
20260507044803 63 90 0.0 2.0 0.00 0.00 0.00 99 1014.9
20260507044300 63 90 0.0 1.0 0.00 0.00 0.00 99 1015.0
20260507043756 63 90 0.0 0.0 0.00 0.00 0.00 99 1014.6
20260507043253 63 90 0.0 0.0 0.00 0.00 0.00 99 1014.4
20260507042749 63 90 0.0 0.0 0.02 0.00 0.00 99 1015.3
20260507042244 63 74 0.0 1.0 0.02 0.00 0.00 99 1015.1
20260507041742 63 83 1.0 1.0 0.00 0.00 0.00 99 1015.7
20260507041238 63 90 0.0 0.0 0.00 0.00 0.00 99 1015.7
20260507040735 63 90 0.0 0.0 0.00 0.00 0.00 99 1015.8
20260507040231 63 81 0.0 1.0 0.00 0.00 0.00 99 1015.7
20260507035727 63 65 2.0 3.0 0.00 1.07 1.07 99 1016.0
20260507035223 63 0 1.0 1.0 0.00 1.07 1.07 99 1015.9
20260507034721 63 75 0.0 1.0 0.00 1.07 1.07 99 1016.0
20260507034217 63 296 3.0 5.0 0.00 1.07 1.07 99 1016.2
20260507033716 63 23 3.0 5.0 0.02 1.07 1.07 99 1015.4
20260507033213 63 274 3.0 3.0 0.02 1.07 1.07 99 1015.1
20260507032710 63 270 1.0 3.0 0.02 1.06 1.06 99 1014.0
20260507032206 63 90 3.0 5.0 0.31 1.06 1.06 99 1013.9
20260507031703 64 74 1.0 1.0 0.47 1.05 1.05 99 1016.6
20260507031159 64 102 0.0 2.0 0.35 1.00 1.00 99 1017.5
20260507030656 64 251 1.0 4.0 0.24 0.96 0.96 99 1018.1
20260507030154 64 18 0.0 2.0 0.19 0.94 0.94 99 1017.2
20260507025651 64 5 0.0 2.0 0.14 0.92 0.92 99 1016.9
20260507025148 64 81 0.0 0.0 0.24 0.90 0.90 99 1016.7
20260507024646 64 81 0.0 0.0 0.50 0.90 0.90 99 1016.6
20260507024143 64 0 0.0 4.0 0.50 0.84 0.84 99 1017.0
20260507023638 64 0 0.0 0.0 0.35 0.80 0.80 99 1017.0
20260507023136 64 0 0.0 0.0 0.14 0.75 0.75 99 1017.0
20260507022633 64 0 0.0 0.0 0.07 0.74 0.74 99 1016.5
20260507022128 64 0 0.0 2.0 0.02 0.72 0.72 99 1016.6
20260507021625 64 270 0.0 0.0 0.09 0.72 0.72 99 1016.7
20260507021120 64 270 0.0 0.0 0.28 0.72 0.72 99 1016.9
20260507020619 64 254 0.0 1.0 0.40 0.71 0.71 99 1016.9
20260507020115 64 90 0.0 0.0 0.09 0.65 0.65 99 1016.0
20260507015614 64 90 0.0 1.0 0.17 0.64 0.64 99 1016.9
20260507015111 64 212 0.0 4.0 0.33 0.63 0.63 99 1017.0
20260507014607 64 168 0.0 2.0 0.50 0.61 0.61 99 1016.5
20260507014103 64 339 3.0 3.0 0.50 0.57 0.57 99 1016.2
20260507013600 65 74 0.0 3.0 0.40 0.52 0.52 99 1016.2
20260507013057 65 32 2.0 4.0 0.33 0.48 0.48 99 1016.2
20260507012554 65 32 0.0 4.0 0.31 0.45 0.45 99 1016.4
20260507012050 66 337 0.0 0.0 0.21 0.42 0.42 99 1016.3
20260507011548 66 337 0.0 0.0 0.07 0.39 0.39 99 1016.0
20260507011044 65 337 0.0 0.0 0.00 0.38 0.38 98 1015.7
20260507010539 66 111 0.0 0.0 0.02 0.38 0.38 98 1015.7
20260507010035 66 111 0.0 0.0 0.07 0.38 0.38 97 1015.7
20260507005533 66 74 1.0 1.0 0.17 0.37 0.37 96 1015.5
20260507005029 67 42 6.0 6.0 0.31 0.37 0.37 96 1015.7
20260507004526 67 6 0.0 5.0 0.21 0.34 0.34 96 1016.1
20260507004023 68 117 0.0 5.0 0.19 0.31 0.31 95 1016.1
20260507003519 69 0 0.0 4.0 0.12 0.29 0.29 94 1015.8
20260507003014 69 66 2.0 2.0 0.09 0.28 0.28 95 1016.0
20260507002510 69 12 0.0 2.0 0.07 0.27 0.27 96 1015.7
20260507002007 69 345 0.0 1.0 0.05 0.26 0.26 95 1015.4
20260507001503 69 279 0.0 0.0 0.02 0.26 0.26 93 1015.5
20260507001001 70 279 0.0 0.0 0.05 0.25 0.25 93 1015.8
20260507000457 70 279 0.0 0.0 0.02 0.25 0.25 92 1015.4
20260506235952 70 279 0.0 0.0 0.02 0.24 0.24 91 1015.2
20260506235450 70 279 0.0 0.0 0.05 0.24 0.24 90 1015.2
20260506234946 71 279 0.0 0.0 0.05 0.24 0.24 89 1015.4
20260506234443 71 279 0.0 0.0 0.02 0.24 0.24 88 1015.1
20260506233941 71 90 0.0 0.0 0.00 0.23 0.23 88 1014.8
20260506233437 72 345 0.0 0.0 0.00 0.23 0.23 86 1015.0
20260506232934 72 345 0.0 0.0 0.00 0.23 0.23 85 1014.8
20260506232430 73 345 0.0 0.0 0.00 0.23 0.23 85 1015.1
20260506231926 73 345 0.0 0.0 0.00 0.23 0.23 83 1015.0
20260506231423 73 345 0.0 0.0 0.00 0.23 0.23 81 1015.1
20260506230920 74 345 0.0 0.0 0.00 0.23 0.23 82 1015.1
20260506230417 74 345 0.0 0.0 0.00 0.23 0.23 81 1015.0
20260506225913 74 345 0.0 0.0 0.00 0.23 0.23 79 1014.9
20260506225411 74 345 0.0 0.0 0.00 0.23 0.23 79 1014.8
20260506224908 74 345 0.0 0.0 0.00 0.23 0.23 78 1014.8
20260506224405 74 345 0.0 0.0 0.00 0.23 0.23 79 1014.7
20260506223901 74 63 0.0 1.0 0.00 0.23 0.23 79 1014.8
20260506223356 75 81 0.0 2.0 0.00 0.23 0.23 78 1014.9
20260506222854 75 7 0.0 3.0 0.00 0.23 0.23 78 1015.1
20260506222349 75 12 0.0 1.0 0.00 0.23 0.23 78 1015.0
20260506221847 76 98 0.0 1.0 0.00 0.23 0.23 78 1014.8
20260506221344 76 90 0.0 2.0 0.00 0.23 0.23 75 1014.6
20260506220842 77 111 0.0 1.0 0.00 0.23 0.23 75 1014.6
20260506220338 78 60 0.0 2.0 0.00 0.23 0.23 73 1014.9
20260506215834 79 279 0.0 2.0 0.00 0.23 0.23 75 1014.8
20260506215330 77 352 0.0 3.0 0.00 0.23 0.23 77 1014.9